Location: Alphen
(52.1351°N, 4.6549°E)
Time: 01:48:40
(UTC+00:00)

SL-4 R/B - Pass Details

Date: 27 January 2021
Orbit: 427 x 664 km, 51.6° (Epoch: 27 February)

Event Time Altitude Azimuth Distance (km) Brightness Sun altitude
Exits shadow 04:55:18 38° 164° (SSE) 774 2.8 -23.4°
Maximum altitude 04:55:35 39° 152° (SSE) 768 2.9 -23.4°
Drops below altitude 10° 04:59:20 10° 83° (E) 1,779 5.7 -22.8°
Sets 05:01:44 0° 76° (ENE) 2,720 6.9 -22.4°
